Location: Larkspur
(54.4391°N, 113.7691°W)
Time: 17:13:04
(UTC+00:00)

Oscar 19 - Pass Details

Date: 03 December 2023
Orbit: 771 x 789 km, 98.9° (Epoch: 03 March)

Event Time Altitude Azimuth Distance (km) Brightness Sun altitude
Rises 01:00:15 0° 223° (SW) 3,239 15.0 -14.4°
Reaches altitude 10° 01:04:04 10° 252° (WSW) 2,319 14.5 -14.9°
Maximum altitude 01:06:09 12° 277° (W) 2,158 14.0 -15.2°
Drops below altitude 10° 01:08:15 10° 301° (WNW) 2,327 13.7 -15.5°
Sets 01:12:08 0° 331° (NNW) 3,264 14.0 -16.0°
